Zurück zum Katalog

CHUANG XIN 20A

CX-20A

AktivWissenschaftLEO
NORAD 58425·PAYLOAD·🇨🇳 China

Gestartet Nov 23, 2023 von Xichang Satellite Launch Center

Loading…

Nächste Überflüge (nächste 24 Stunden)

TLE

AktuellSource: Space-Track

Epoche: Sep 14, 2026, 19:52 UTC

1 58425U 23181A   26257.82809541 -.00000098  00000-0  53709-4 0  9994
2 58425  49.9610 358.0036 0013840 180.1383 179.9493 13.41504009137785

Verfolge CHUANG XIN 20A in Echtzeit mit AllMySat

Download on the App Store